Temp
15 15 16 16 17 18 18 19 20 20 20 21 22 23 23 24 25 26 26 27 26 26 25 22 24 25 25 27 27 26 26 26 26 27 28 28 28 26 25 27 27 26 26 24 22
14 15 15 16 16 17 18 19 19 20 21 21 22 23 23 24 25 25 27 27 27 26 24 25 26 25 27 30 30 19 25 27 30 29 28 28 28 26 27 26 26 26 26 23 22
14 15 15 15 16 16 17 18 19 20 20 21 21 22 23 24 25 28 27 27 27 26 26 26 28 27 29 31 31 28 28 26 28 30 30 27 26 28 28 24 27 26 24 23 23
14 14 15 15 16 16 17 17 18 19 20 21 21 22 22 23 28 27 27 27 27 26 26 27 28 29 29 32 32 30 29 29 27 28 29 28 29 28 25 25 27 25 24 24 23
14 14 14 15 15 16 17 17 18 19 19 20 21 21 22 24 27 26 26 26 26 25 26 28 29 30 30 33 32 30 31 29 30 29 29 29 30 30 29 28 27 25 24 24 24
14 14 14 15 15 15 16 17 18 19 19 20 20 21 21 26 26 26 26 26 24 25 27 28 29 30 31 32 33 33 29 29 31 30 31 32 32 31 29 28 26 25 24 25 25
13 14 14 15 15 16 16 17 18 18 19 20 20 21 22 25 25 25 24 24 25 27 28 28 29 29 31 33 32 33 30 32 32 32 32 31 31 31 29 28 27 25 25 25 25
13 14 14 15 15 16 16 17 18 18 19 19 20 20 23 25 25 24 25 25 26 27 28 28 28 28 30 31 33 33 29 29 32 33 32 22 19 30 29 28 27 27 26 25 25
13 13 14 14 15 16 16 17 18 18 18 19 20 20 25 24 24 24 25 26 26 26 27 26 27 29 31 32 33 34 27 22 21 31 32 28 18 25 29 28 27 27 26 26 25
13 13 14 14 15 16 16 17 18 18 18 18 18 21 23 25 25 25 25 26 27 26 27 27 28 31 32 32 31 33 32 27 22 30 32 27 21 30 30 30 29 28 27 26 25
13 13 13 14 15 15 17 17 18 17 19 23 24 24 24 24 23 23 25 25 26 27 28 28 30 30 32 33 34 33 32 29 23 22 29 32 27 32 31 31 30 29 27 26 26
12 13 14 14 14 15 16 19 17 15 20 22 22 23 24 22 24 24 25 26 27 28 29 30 29 32 33 33 33 33 32 33 33 32 33 33 34 33 32 32 31 30 28 27 26
12 13 14 14 14 15 16 16 15 16 20 24 23 23 23 23 24 26 25 26 28 28 30 29 31 32 32 32 32 32 32 33 33 33 33 33 33 33 33 31 32 31 30 28 27
12 13 13 14 14 15 17 15 15 15 21 25 24 23 23 23 25 24 26 26 28 29 30 30 32 32 31 32 32 31 33 33 32 32 32 34 32 33 34 33 32 32 30 29 28
12 13 13 14 15 16 15 15 15 16 21 26 24 22 24 24 26 26 25 26 28 29 30 29 31 31 31 31 33 32 33 33 33 32 32 32 32 33 34 33 33 33 32 31 29
12 13 13 13 13 14 14 15 16 20 21 24 25 24 24 24 26 26 25 25 27 28 30 30 31 32 32 33 32 33 32 31 32 33 31 32 33 34 34 34 34 33 32 31 30
12 13 13 13 15 13 14 16 20 21 25 25 25 25 25 26 26 26 26 26 26 25 27 29 30 32 32 32 32 32 32 29 29 30 30 34 33 34 35 35 35 34 33 32 31
12 13 13 12 12 13 14 19 19 24 24 24 24 25 25 27 26 26 26 26 27 28 28 28 28 30 32 32 31 31 32 30 28 30 31 33 32 33 35 35 35 34 34 33 32
12 13 14 13 13 13 16 19 21 23 23 22 24 23 24 26 25 26 26 27 28 28 27 28 28 31 32 32 32 31 31 33 31 33 32 34 34 35 35 34 34 34 34 34 34
12 14 16 13 13 14 18 18 22 21 21 22 21 24 24 25 24 25 26 27 28 28 29 28 28 31 31 31 31 31 33 30 31 28 29 32 32 33 33 34 34 35 34 33 33
12 16 14 14 14 16 19 21 21 20 20 21 22 23 23 24 25 26 26 25 25 26 26 27 28 30 31 30 30 30 30 31 32 31 30 30 32 35 34 34 34 34 32 32 32
14 18 14 14 17 19 20 20 16 19 20 21 21 22 23 23 23 25 25 24 22 24 25 27 28 28 29 31 31 31 31 31 30 29 31 32 32 36 36 35 33 33 32 32 31
15 17 15 15 18 20 20 19 18 20 20 20 21 22 22 22 22 23 23 21 22 24 25 27 26 27 28 29 30 29 31 31 31 31 30 30 32 35 34 34 33 32 31 30 30
14 19 17 16 16 17 18 18 18 18 18 19 20 20 21 21 22 22 22 22 21 23 18 21 26 26 27 28 29 28 29 30 31 30 30 31 32 33 34 34 33 32 30 29 29
14 16 14 18 18 16 17 17 17 17 18 18 19 20 20 20 21 21 23 22 22 20 21 24 24 26 28 27 28 29 28 29 29 30 30 31 31 32 33 33 31 30 29 29 28
13 14 15 15 15 15 13 14 12 13 16 18 18 20 21 20 21 21 22 22 22 23 23 25 24 25 25 26 27 27 28 29 29 30 29 30 31 33 32 31 29 28 28 27 27
11 11 13 12 14 14 12 11 11 12 13 14 17 18 19 18 18 19 21 21 22 21 22 23 24 23 24 26 26 25 27 27 28 29 29 29 29 30 30 29 27 27 26 24 24
Height
1522 1520 1518 1517 1515 1512 1511 1509 1507 1506 1505 1504 1503 1501 1500 1499 1499 1497 1498 1498 1497 1496 1496 1498 1502 1502 1501 1494 1493 1494 1496 1495 1491 1490 1489 1492 1495 1501 1503 1503 1505 1510 1512 1520 1527
1521 1519 1517 1515 1513 1511 1509 1507 1506 1504 1503 1501 1501 1500 1500 1498 1497 1496 1496 1495 1495 1495 1496 1500 1500 1501 1494 1486 1484 1500 1498 1492 1483 1481 1488 1491 1492 1500 1502 1505 1507 1511 1514 1522 1528
1519 1517 1515 1513 1512 1510 1508 1506 1505 1503 1501 1500 1499 1499 1500 1498 1497 1492 1491 1493 1493 1494 1499 1499 1498 1498 1492 1483 1478 1485 1489 1491 1489 1480 1482 1491 1496 1493 1497 1508 1504 1510 1516 1522 1527
1518 1515 1513 1511 1509 1507 1506 1504 1502 1501 1500 1499 1498 1497 1498 1499 1495 1489 1490 1491 1492 1494 1498 1498 1497 1493 1492 1478 1478 1481 1484 1486 1491 1486 1487 1489 1488 1494 1499 1503 1501 1510 1516 1521 1526
1516 1514 1511 1509 1506 1504 1502 1501 1500 1498 1498 1497 1497 1496 1497 1497 1492 1489 1489 1490 1491 1492 1497 1496 1494 1489 1487 1477 1476 1481 1481 1486 1483 1485 1483 1485 1484 1488 1493 1498 1502 1511 1517 1520 1525
1515 1512 1509 1507 1504 1502 1500 1498 1496 1496 1495 1495 1495 1495 1496 1494 1489 1487 1490 1490 1491 1494 1495 1495 1491 1488 1486 1478 1474 1473 1485 1484 1480 1482 1478 1477 1482 1486 1496 1500 1505 1512 1517 1520 1522
1513 1510 1507 1504 1502 1500 1497 1495 1493 1492 1492 1492 1492 1493 1494 1488 1488 1489 1490 1490 1492 1494 1493 1493 1492 1491 1482 1474 1474 1472 1474 1473 1474 1477 1476 1474 1482 1481 1495 1501 1505 1511 1516 1519 1522
1512 1508 1505 1502 1500 1497 1495 1492 1491 1489 1489 1490 1490 1491 1487 1484 1486 1487 1489 1491 1492 1493 1493 1492 1492 1490 1487 1479 1473 1467 1479 1484 1470 1473 1473 1485 1522 1489 1496 1500 1505 1508 1513 1518 1522
1511 1507 1503 1500 1498 1495 1493 1490 1488 1487 1487 1488 1489 1490 1483 1479 1482 1484 1486 1488 1490 1491 1492 1493 1492 1487 1481 1477 1472 1463 1490 1512 1503 1471 1467 1485 1526 1500 1495 1499 1503 1508 1510 1516 1521
1510 1505 1501 1498 1495 1493 1491 1488 1486 1485 1485 1487 1488 1490 1478 1475 1478 1480 1483 1486 1487 1489 1491 1491 1488 1481 1477 1471 1479 1463 1465 1494 1512 1473 1459 1479 1506 1485 1488 1492 1499 1505 1509 1514 1518
1508 1504 1500 1496 1493 1491 1489 1489 1487 1485 1484 1475 1472 1473 1472 1474 1475 1477 1479 1483 1485 1484 1481 1484 1483 1478 1469 1465 1455 1460 1466 1478 1501 1493 1476 1466 1488 1473 1481 1484 1492 1499 1505 1510 1515
1506 1502 1498 1494 1491 1490 1489 1488 1488 1489 1481 1474 1472 1472 1471 1474 1471 1472 1476 1479 1479 1473 1476 1476 1476 1467 1464 1459 1459 1462 1464 1462 1461 1468 1467 1469 1463 1464 1475 1480 1483 1491 1498 1505 1510
1504 1500 1495 1492 1489 1489 1490 1489 1488 1487 1480 1461 1464 1466 1468 1473 1470 1465 1470 1471 1469 1471 1466 1467 1461 1466 1463 1462 1464 1462 1466 1461 1464 1464 1467 1465 1470 1464 1467 1477 1479 1484 1491 1499 1504
1502 1497 1493 1491 1491 1490 1489 1488 1488 1487 1474 1449 1457 1458 1463 1467 1463 1465 1465 1469 1465 1462 1463 1458 1457 1457 1463 1462 1460 1469 1459 1459 1466 1471 1476 1459 1477 1462 1456 1467 1473 1478 1484 1491 1498
1500 1495 1492 1489 1488 1490 1490 1488 1488 1488 1473 1439 1450 1456 1455 1460 1451 1455 1461 1463 1458 1457 1457 1454 1453 1454 1458 1459 1457 1465 1455 1460 1463 1468 1467 1467 1472 1456 1452 1464 1466 1471 1477 1483 1492
1498 1493 1490 1489 1487 1489 1487 1488 1488 1481 1467 1442 1445 1450 1453 1454 1451 1450 1458 1462 1460 1456 1451 1448 1448 1448 1448 1450 1456 1457 1460 1470 1462 1465 1483 1464 1465 1456 1449 1451 1454 1463 1472 1479 1485
1496 1492 1489 1488 1489 1487 1487 1488 1479 1466 1438 1439 1441 1442 1442 1440 1447 1447 1452 1454 1454 1464 1457 1450 1444 1441 1447 1449 1453 1456 1462 1488 1492 1486 1486 1451 1461 1452 1442 1448 1449 1455 1466 1474 1481
1494 1491 1489 1487 1486 1486 1487 1483 1476 1443 1437 1442 1446 1441 1440 1433 1437 1440 1442 1445 1446 1443 1448 1451 1457 1438 1436 1440 1450 1453 1454 1469 1496 1483 1470 1451 1465 1452 1441 1447 1452 1457 1459 1464 1471
1492 1490 1490 1489 1486 1486 1486 1471 1456 1445 1447 1450 1445 1448 1439 1431 1440 1438 1439 1435 1435 1437 1445 1442 1442 1435 1435 1438 1444 1447 1454 1447 1460 1449 1455 1441 1441 1439 1442 1448 1452 1455 1460 1461 1464
1490 1489 1487 1488 1487 1487 1480 1467 1453 1459 1461 1457 1455 1439 1439 1435 1442 1435 1432 1429 1427 1431 1432 1433 1441 1425 1431 1439 1441 1441 1440 1467 1458 1481 1480 1450 1449 1447 1443 1447 1449 1452 1456 1460 1464
1488 1484 1485 1486 1487 1483 1468 1454 1456 1463 1465 1459 1450 1445 1440 1431 1430 1429 1428 1438 1441 1441 1445 1441 1435 1421 1421 1432 1440 1447 1445 1442 1445 1453 1467 1468 1450 1426 1437 1443 1446 1451 1461 1464 1463
1489 1478 1484 1485 1482 1468 1462 1460 1472 1467 1464 1462 1460 1451 1444 1440 1441 1430 1428 1437 1453 1449 1446 1439 1429 1431 1422 1422 1431 1432 1437 1439 1453 1467 1447 1447 1446 1420 1425 1435 1450 1454 1458 1461 1466
1486 1481 1483 1483 1470 1458 1460 1468 1470 1465 1463 1459 1457 1453 1451 1449 1449 1438 1437 1453 1455 1448 1441 1435 1438 1439 1429 1430 1430 1436 1429 1434 1437 1441 1450 1457 1449 1425 1433 1439 1450 1457 1462 1461 1472
1489 1474 1477 1480 1479 1475 1469 1467 1464 1468 1469 1466 1459 1457 1455 1453 1450 1449 1448 1458 1457 1451 1454 1450 1437 1434 1431 1429 1426 1439 1431 1430 1435 1445 1448 1442 1439 1431 1432 1437 1447 1456 1463 1469 1474
1491 1486 1489 1474 1475 1482 1477 1474 1470 1467 1467 1466 1460 1458 1454 1452 1449 1449 1445 1454 1455 1457 1454 1447 1443 1430 1423 1424 1422 1427 1435 1433 1435 1434 1442 1439 1439 1434 1435 1440 1447 1458 1465 1469 1469
1497 1494 1489 1485 1487 1483 1481 1481 1487 1486 1474 1464 1462 1453 1452 1452 1449 1448 1449 1449 1449 1452 1450 1445 1446 1438 1437 1433 1434 1433 1428 1432 1432 1435 1439 1439 1438 1430 1438 1445 1455 1460 1465 1468 1465
1502 1500 1495 1492 1491 1488 1493 1497 1494 1493 1481 1478 1471 1464 1459 1463 1462 1459 1454 1453 1453 1456 1452 1450 1444 1451 1448 1433 1438 1448 1437 1436 1434 1435 1440 1449 1444 1439 1441 1451 1460 1466 1470 1476 1477
Wind_Speed
11 11 11 10 10 11 12 12 12 13 13 13 12 12 13 11 10 11 7 5 6 5 2 8 10 6 5 10 6 2 3 1 10 3 13 16 15 11 7 9 6 4 12 24 24
12 12 12 12 13 12 12 12 13 14 14 14 13 12 12 13 11 14 14 11 7 6 10 10 8 6 16 6 6 4 6 1 8 12 14 15 9 14 11 7 10 14 18 25 24
13 13 13 13 13 13 13 13 13 13 14 14 14 12 11 12 13 10 14 11 10 7 10 8 5 7 9 7 2 10 9 7 6 3 8 17 12 15 16 8 15 20 26 26 24
13 13 13 14 14 14 14 14 13 13 13 13 14 13 10 6 7 2 8 10 12 12 10 10 8 13 2 8 1 7 11 9 8 1 12 19 18 14 12 3 16 20 24 26 24
15 14 13 13 14 15 15 15 15 14 13 12 12 13 9 10 19 11 5 13 15 14 14 13 12 13 5 8 5 9 6 5 17 11 22 20 17 13 17 15 18 21 25 25 23
16 15 14 13 13 14 15 15 15 14 13 11 11 11 9 18 5 10 8 11 14 13 14 13 11 8 8 11 8 2 3 23 16 6 11 13 15 14 12 15 19 22 24 24 23
19 16 15 14 14 14 14 15 14 13 13 11 9 9 13 19 6 10 12 12 13 15 15 14 13 11 8 12 1 9 9 18 17 17 10 16 15 8 13 15 18 21 22 22 22
21 18 16 15 14 15 15 14 13 12 11 9 7 6 14 12 19 13 16 16 15 14 15 8 11 16 18 15 12 13 8 5 14 16 11 21 12 13 14 16 17 20 21 21 22
23 20 18 16 14 14 14 13 11 10 8 5 2 8 15 15 18 18 17 20 19 15 14 13 11 18 18 15 15 14 8 1 16 20 13 16 9 24 16 14 16 18 21 22 23
24 22 20 17 15 13 12 11 8 7 7 5 9 8 18 17 14 20 21 18 19 19 16 15 13 14 15 14 15 13 14 17 16 15 10 25 21 17 19 19 18 18 20 22 23
25 23 20 18 14 11 10 8 5 5 15 17 2 20 2 7 8 13 21 22 20 22 20 22 15 19 22 21 21 8 13 14 22 11 23 7 11 17 18 17 19 19 21 22 23
25 25 20 16 13 6 8 6 4 5 10 20 23 16 11 4 10 18 22 24 25 23 23 21 22 23 21 21 18 10 17 10 5 18 8 10 7 18 16 15 20 20 21 22 24
25 26 19 14 9 4 3 1 4 6 9 16 21 25 23 17 18 16 23 29 26 26 26 27 25 24 23 22 17 14 17 12 7 8 10 11 7 9 20 16 16 19 20 23 26
25 28 19 9 3 4 2 3 5 5 6 13 14 12 15 15 22 25 23 26 27 29 29 29 29 25 24 22 21 17 18 17 7 5 10 12 10 15 16 16 17 20 22 24 26
24 25 16 8 5 2 3 4 4 3 6 11 12 8 13 19 0 22 24 24 25 27 21 30 30 30 25 26 21 20 17 17 13 12 14 13 9 12 15 14 13 19 23 24 25
23 19 12 7 3 6 5 5 3 7 11 8 9 12 15 20 18 8 22 23 25 24 26 29 33 29 29 24 21 22 17 13 15 14 13 17 10 10 10 13 15 20 22 23 26
21 14 9 1 2 5 4 6 7 10 6 7 8 11 17 17 20 17 18 22 21 23 25 27 32 29 28 29 20 27 20 12 12 13 15 17 13 13 11 4 3 17 21 21 22
19 9 6 3 4 4 4 9 11 8 10 7 4 8 15 18 18 19 19 19 26 25 19 23 23 32 27 32 26 25 23 16 20 14 16 19 16 14 7 10 9 7 13 22 24
15 6 3 5 3 3 11 10 13 7 5 5 10 13 16 13 9 13 22 20 23 27 25 22 27 24 30 26 25 27 23 23 22 22 15 15 21 19 7 9 10 7 10 9 5
13 6 5 3 3 4 9 14 10 6 5 10 14 10 16 16 17 16 20 11 18 13 19 20 19 29 35 23 25 27 19 21 17 23 22 18 12 9 15 17 16 11 7 5 6
4 7 2 3 5 11 10 5 3 3 8 10 12 7 16 7 13 17 13 7 3 6 14 20 17 19 23 29 27 21 25 20 20 21 19 17 14 13 8 5 2 11 10 9 6
6 5 1 2 10 8 8 5 5 12 9 11 7 13 9 9 11 16 9 6 4 14 17 26 8 16 26 18 23 25 28 27 13 22 17 18 14 11 15 13 14 3 5 8 11
7 4 3 3 6 6 4 7 4 10 11 6 9 8 5 7 6 11 8 6 7 15 7 14 15 15 21 20 20 24 22 24 24 19 23 17 18 10 9 7 10 6 6 8 13
7 3 5 2 4 8 12 8 8 6 13 8 10 3 8 10 10 7 7 6 4 2 7 5 14 21 14 18 22 21 23 23 25 19 19 19 16 14 11 13 15 5 8 3 11
4 5 6 5 7 9 12 13 9 9 8 5 9 13 12 11 9 11 12 8 7 5 6 10 16 13 25 4 10 25 22 24 22 22 20 18 21 16 9 2 8 8 4 9 5
8 7 3 7 10 9 4 5 8 9 14 8 12 12 6 9 9 7 8 6 8 7 5 6 6 4 17 8 9 11 13 26 21 18 17 20 19 10 4 5 4 7 10 14 15
7 4 8 6 5 7 6 7 6 10 11 14 10 11 6 12 14 12 5 5 4 8 7 6 6 9 14 13 11 12 15 15 10 11 13 17 10 8 7 9 9 7 5 8 11
Wind_Direction
334 330 327 322 316 313 309 306 304 301 300 295 291 292 296 298 292 296 278 240 266 233 195 157 184 218 236 257 218 66 31 284 90 154 128 149 139 111 159 144 143 96 137 153 155
328 324 320 318 317 313 307 301 297 294 293 294 293 290 292 299 291 274 252 247 244 209 159 176 198 209 252 237 193 57 157 201 317 129 155 146 175 152 138 136 130 128 128 149 155
327 319 315 313 310 308 306 303 297 290 288 288 289 288 289 300 300 247 224 233 220 194 175 196 249 220 306 262 210 171 117 145 349 4 175 138 198 169 140 178 160 144 147 155 160
337 327 317 310 308 307 305 301 297 293 285 282 282 284 284 274 266 349 232 217 206 175 203 219 223 234 226 278 71 84 88 169 166 189 162 165 179 138 84 130 160 152 158 159 164
343 335 327 319 313 308 306 303 296 291 286 281 277 276 276 247 253 267 245 193 191 185 215 218 237 245 179 276 235 100 182 324 139 168 162 184 153 142 135 132 132 151 159 163 167
344 336 330 324 321 317 310 302 295 289 283 279 274 266 256 252 243 241 214 193 191 203 216 225 248 293 284 277 284 138 88 166 141 140 162 156 112 172 127 135 138 154 163 167 168
351 337 328 323 323 323 318 308 297 288 281 279 267 254 247 235 220 231 203 200 194 214 222 233 248 274 303 271 301 266 173 171 167 176 184 190 141 134 142 152 149 160 169 170 171
355 347 330 320 318 323 324 314 301 289 279 275 264 228 249 239 234 219 210 211 211 218 229 240 248 262 267 276 259 242 157 280 155 175 168 77 325 106 149 160 160 163 171 172 175
354 350 339 322 315 316 324 317 303 287 268 257 261 222 253 220 226 220 210 212 212 218 225 236 248 249 256 237 245 224 133 251 336 266 160 108 270 254 163 160 165 169 170 177 179
352 349 342 333 318 317 322 322 306 276 263 245 249 246 241 228 228 214 211 210 211 214 219 227 237 236 229 236 238 224 156 145 182 279 201 150 187 193 175 168 169 174 175 181 184
349 348 342 335 327 324 330 317 266 215 217 225 273 220 115 204 212 207 207 209 217 214 211 205 222 227 231 225 252 306 277 157 218 345 272 249 80 160 172 179 170 176 178 185 187
345 345 341 334 330 333 2 319 352 319 290 247 245 241 242 234 232 220 203 203 209 217 210 219 223 226 233 244 235 244 268 192 174 167 284 221 212 152 168 196 175 181 181 187 187
340 342 341 335 339 9 299 271 325 320 258 262 225 229 228 226 239 219 199 207 210 218 216 223 217 227 233 236 241 225 246 249 261 164 231 280 239 220 165 185 202 190 186 189 190
338 339 339 340 30 313 263 272 326 307 269 196 200 228 205 212 237 228 215 215 226 222 224 228 232 208 230 230 229 230 228 259 282 219 256 191 255 182 172 180 193 192 191 190 192
337 339 338 326 257 283 255 306 290 272 271 120 123 138 193 200 95 201 215 214 229 223 222 227 224 231 212 229 226 231 243 223 245 249 263 214 262 172 185 188 193 202 197 195 194
337 340 344 351 307 248 280 279 267 229 243 148 152 195 195 210 227 168 202 220 228 237 231 239 228 227 231 221 219 235 237 250 251 243 244 247 245 233 188 193 194 185 196 200 198
336 335 345 244 315 288 265 218 229 243 89 210 208 191 210 202 212 205 195 203 214 212 226 224 235 228 227 235 211 236 221 218 223 225 239 238 223 251 78 105 107 167 185 197 205
333 325 329 323 287 270 222 229 252 262 263 96 303 261 248 227 204 202 219 209 213 223 218 218 219 228 214 231 211 224 227 225 221 225 229 224 245 224 170 170 193 227 191 189 201
331 323 288 294 300 218 237 229 234 313 30 332 265 246 224 224 253 209 217 219 212 221 224 214 228 207 232 219 223 220 216 240 247 255 256 223 203 231 163 239 218 158 226 236 279
332 274 229 272 292 258 243 259 304 339 316 272 261 238 240 196 205 217 204 215 218 208 235 251 248 221 210 212 227 241 212 219 239 249 254 246 235 205 191 216 220 194 209 326 318
334 256 162 259 281 248 247 262 345 256 289 270 271 278 262 291 198 222 197 98 313 202 248 253 254 228 203 206 208 216 238 226 227 231 246 245 239 217 182 151 160 126 203 337 353
285 257 343 241 252 226 285 15 31 274 229 255 269 292 279 235 250 263 186 98 225 255 227 231 243 244 193 214 219 235 218 231 227 232 240 253 250 227 201 177 213 110 125 49 334
296 326 7 246 275 280 127 270 260 284 251 254 239 242 228 247 255 290 87 68 252 226 301 215 226 234 195 202 197 234 216 225 230 234 229 232 235 243 125 133 124 99 191 52 339
297 254 155 235 319 299 308 280 277 177 281 268 280 273 235 234 231 193 160 170 218 76 333 313 233 243 225 205 206 215 230 218 225 227 235 238 239 230 219 186 139 157 53 319 299
349 48 341 332 26 336 303 298 287 290 239 252 228 243 225 232 199 215 173 155 199 147 222 240 250 235 240 312 291 199 219 230 225 237 235 232 236 240 248 277 26 42 11 318 319
343 338 321 35 339 317 118 20 359 323 284 307 248 221 246 239 231 183 209 233 181 169 237 233 235 234 256 199 247 247 223 221 227 230 249 261 265 242 132 80 360 28 351 321 336
3 332 294 85 12 332 16 341 320 336 304 353 320 285 207 12 358 344 355 337 59 267 222 252 261 209 227 199 215 227 226 243 239 251 234 240 267 344 17 53 27 345 10 355 340